| time (UTC) | temp F | wind direction | speed MPH | gust MPH | rain 1hr in | rain 24hr in | rain mn in | humidity % | barometer mb |
| 20260505041754 | 52 | 0 | 1.0 | 3.0 | 0.18 | 0.25 | 0.27 | 65 | 1014.5 |
| 20260505041254 | 53 | 0 | 2.0 | 3.0 | 0.17 | 0.25 | 0.25 | 65 | 1014.6 |
| 20260505041010 | 53 | 0 | 2.0 | 3.0 | 0.17 | 0.25 | 0.24 | 65 | 1014.5 |
| 20260505040254 | 53 | 0 | 0.0 | 2.0 | 0.16 | 0.25 | 0.23 | 64 | 1014.6 |
| 20260505035754 | 53 | 0 | 0.0 | 4.0 | 0.15 | 0.10 | 0.21 | 64 | 1014.7 |
| 20260505035255 | 53 | 0 | 2.0 | 4.0 | 0.14 | 0.10 | 0.20 | 64 | 1014.8 |
| 20260505034754 | 53 | 0 | 2.0 | 3.0 | 0.13 | 0.10 | 0.19 | 64 | 1014.9 |
| 20260505034254 | 53 | 0 | 1.0 | 3.0 | 0.11 | 0.10 | 0.17 | 63 | 1015.0 |
| 20260505033754 | 53 | 0 | 1.0 | 3.0 | 0.09 | 0.10 | 0.16 | 63 | 1015.0 |
| 20260505033254 | 53 | 0 | 1.0 | 3.0 | 0.08 | 0.10 | 0.13 | 63 | 1015.0 |
| 20260505033237 | 53 | 0 | 1.0 | 3.0 | 0.07 | 0.10 | 0.13 | 62 | 1014.9 |
| 20260505032254 | 53 | 0 | 0.0 | 2.0 | 0.06 | 0.10 | 0.11 | 61 | 1014.9 |
| 20260505031754 | 53 | 0 | 0.0 | 3.0 | 0.04 | 0.10 | 0.09 | 61 | 1014.9 |
| 20260505031512 | 53 | 0 | 1.0 | 3.0 | 0.03 | 0.10 | 0.09 | 61 | 1014.9 |
| 20260505030753 | 53 | 0 | 1.0 | 3.0 | 0.02 | 0.10 | 0.08 | 61 | 1014.9 |
| 20260505030253 | 53 | 0 | 1.0 | 2.0 | 0.02 | 0.10 | 0.07 | 60 | 1014.9 |
| 20260505025754 | 53 | 0 | 0.0 | 0.0 | 0.02 | 0.09 | 0.06 | 60 | 1014.9 |
| 20260505025253 | 53 | 0 | 0.0 | 2.0 | 0.01 | 0.09 | 0.06 | 60 | 1014.9 |
| 20260505024753 | 53 | 0 | 0.0 | 3.0 | 0.01 | 0.09 | 0.06 | 60 | 1015.0 |
| 20260505024253 | 53 | 0 | 0.0 | 3.0 | 0.01 | 0.09 | 0.06 | 59 | 1015.0 |
| 20260505023753 | 53 | 0 | 1.0 | 2.0 | 0.01 | 0.09 | 0.06 | 59 | 1015.0 |
| 20260505023253 | 53 | 0 | 0.0 | 3.0 | 0.01 | 0.09 | 0.06 | 59 | 1015.1 |
| 20260505022752 | 53 | 0 | 1.0 | 3.0 | 0.00 | 0.09 | 0.06 | 59 | 1015.1 |
| 20260505022252 | 53 | 0 | 0.0 | 3.0 | 0.00 | 0.09 | 0.06 | 58 | 1015.1 |
| 20260505021752 | 53 | 0 | 0.0 | 3.0 | 0.00 | 0.09 | 0.06 | 58 | 1015.0 |
| 20260505021252 | 53 | 0 | 0.0 | 1.0 | 0.00 | 0.09 | 0.06 | 58 | 1014.9 |
| 20260505020752 | 53 | 0 | 0.0 | 1.0 | 0.00 | 0.09 | 0.06 | 58 | 1014.9 |
| 20260505020252 | 53 | 0 | 0.0 | 2.0 | 0.00 | 0.09 | 0.06 | 58 | 1014.9 |
| 20260505015752 | 53 | 0 | 0.0 | 2.0 | 0.00 | 0.09 | 0.06 | 58 | 1014.9 |
| 20260505015251 | 53 | 0 | 1.0 | 2.0 | 0.00 | 0.09 | 0.06 | 58 | 1014.9 |
| 20260505014751 | 53 | 0 | 0.0 | 3.0 | 0.00 | 0.09 | 0.06 | 58 | 1014.9 |
| 20260505014252 | 53 | 0 | 1.0 | 3.0 | 0.00 | 0.09 | 0.06 | 58 | 1014.8 |
| 20260505013751 | 53 | 0 | 1.0 | 6.0 | 0.00 | 0.09 | 0.06 | 58 | 1014.8 |
| 20260505013251 | 53 | 0 | 2.0 | 6.0 | 0.00 | 0.09 | 0.06 | 58 | 1014.8 |
| 20260505012751 | 53 | 0 | 2.0 | 3.0 | 0.01 | 0.09 | 0.06 | 59 | 1014.8 |
| 20260505012251 | 53 | 0 | 1.0 | 5.0 | 0.01 | 0.09 | 0.06 | 59 | 1014.9 |
| 20260505011751 | 53 | 0 | 2.0 | 5.0 | 0.01 | 0.09 | 0.06 | 59 | 1014.9 |
| 20260505011251 | 53 | 0 | 2.0 | 5.0 | 0.02 | 0.09 | 0.06 | 59 | 1015.0 |
| 20260505010751 | 53 | 0 | 4.0 | 5.0 | 0.02 | 0.09 | 0.06 | 59 | 1015.1 |
| 20260505010250 | 53 | 0 | 2.0 | 7.0 | 0.03 | 0.09 | 0.06 | 59 | 1015.2 |
| 20260505005751 | 53 | 0 | 3.0 | 7.0 | 0.04 | 0.05 | 0.06 | 59 | 1015.2 |
| 20260505005250 | 53 | 0 | 4.0 | 6.0 | 0.06 | 0.05 | 0.06 | 59 | 1015.4 |
| 20260505004750 | 53 | 0 | 2.0 | 4.0 | 0.06 | 0.05 | 0.06 | 59 | 1015.6 |
| 20260505004250 | 53 | 0 | 2.0 | 3.0 | 0.06 | 0.05 | 0.06 | 59 | 1015.8 |
| 20260505003750 | 53 | 0 | 1.0 | 3.0 | 0.06 | 0.05 | 0.06 | 59 | 1015.9 |
| 20260505003249 | 53 | 0 | 0.0 | 0.0 | 0.06 | 0.05 | 0.05 | 59 | 1016.1 |
| 20260505002750 | 53 | 0 | 0.0 | 0.0 | 0.05 | 0.05 | 0.05 | 59 | 1016.3 |
| 20260505002249 | 53 | 0 | 0.0 | 0.0 | 0.05 | 0.05 | 0.05 | 59 | 1016.5 |
| 20260505001749 | 53 | 0 | 0.0 | 0.0 | 0.05 | 0.05 | 0.05 | 59 | 1016.5 |
| 20260505001250 | 53 | 0 | 0.0 | 2.0 | 0.04 | 0.05 | 0.04 | 58 | 1016.7 |
| 20260505000749 | 53 | 0 | 0.0 | 3.0 | 0.03 | 0.05 | 0.03 | 58 | 1016.8 |
| 20260505000250 | 53 | 0 | 2.0 | 3.0 | 0.02 | 0.05 | 0.02 | 58 | 1017.0 |
| 20260504235749 | 53 | 0 | 1.0 | 3.0 | 0.02 | 0.03 | 0.01 | 58 | 1017.0 |
| 20260504235249 | 54 | 0 | 1.0 | 4.0 | 0.00 | 0.03 | 0.00 | 58 | 1017.0 |
| 20260504234749 | 54 | 0 | 1.0 | 4.0 | 0.00 | 0.03 | 0.00 | 58 | 1017.1 |
| 20260504234248 | 54 | 0 | 0.0 | 2.0 | 0.00 | 0.03 | 0.00 | 58 | 1017.1 |
| 20260504233748 | 54 | 0 | 1.0 | 2.0 | 0.00 | 0.03 | 0.00 | 57 | 1017.1 |
| 20260504233249 | 54 | 0 | 0.0 | 0.0 | 0.00 | 0.03 | 0.00 | 57 | 1017.0 |
| 20260504232749 | 54 | 0 | 0.0 | 0.0 | 0.00 | 0.03 | 0.00 | 57 | 1017.0 |
| 20260504232511 | 54 | 0 | 0.0 | 0.0 | 0.00 | 0.03 | 0.00 | 57 | 1017.0 |
| 20260504231748 | 54 | 0 | 0.0 | 0.0 | 0.00 | 0.03 | 0.00 | 57 | 1017.2 |
| 20260504231248 | 54 | 0 | 0.0 | 0.0 | 0.00 | 0.03 | 0.00 | 57 | 1017.2 |
| 20260504231008 | 54 | 0 | 0.0 | 4.0 | 0.00 | 0.03 | 0.00 | 57 | 1017.4 |
| 20260504230248 | 54 | 0 | 0.0 | 4.0 | 0.00 | 0.03 | 0.00 | 57 | 1017.3 |
| 20260504225748 | 54 | 0 | 1.0 | 4.0 | 0.00 | 0.03 | 0.00 | 57 | 1017.4 |
| 20260504225248 | 54 | 0 | 2.0 | 4.0 | 0.00 | 0.03 | 0.00 | 57 | 1017.5 |
| 20260504224747 | 55 | 0 | 0.0 | 0.0 | 0.00 | 0.03 | 0.00 | 57 | 1017.5 |
| 20260504224248 | 55 | 0 | 0.0 | 0.0 | 0.00 | 0.03 | 0.00 | 57 | 1017.4 |
| 20260504223747 | 55 | 0 | 0.0 | 2.0 | 0.00 | 0.03 | 0.00 | 57 | 1017.5 |
| 20260504223248 | 55 | 0 | 0.0 | 2.0 | 0.00 | 0.03 | 0.00 | 57 | 1017.5 |
| 20260504222747 | 55 | 0 | 0.0 | 0.0 | 0.00 | 0.03 | 0.00 | 57 | 1017.5 |
| 20260504222247 | 55 | 0 | 0.0 | 0.0 | 0.00 | 0.03 | 0.00 | 57 | 1017.5 |
| 20260504222237 | 55 | 0 | 0.0 | 0.0 | 0.00 | 0.03 | 0.00 | 57 | 1017.4 |
| 20260504221247 | 55 | 0 | 0.0 | 1.0 | 0.00 | 0.03 | 0.00 | 57 | 1017.6 |
| 20260504220746 | 55 | 0 | 0.0 | 1.0 | 0.00 | 0.03 | 0.00 | 56 | 1017.7 |
| 20260504220247 | 55 | 0 | 0.0 | 0.0 | 0.00 | 0.03 | 0.00 | 56 | 1017.7 |
| 20260504215746 | 55 | 0 | 0.0 | 2.0 | 0.00 | 0.03 | 0.03 | 56 | 1017.9 |
| 20260504215246 | 55 | 0 | 0.0 | 2.0 | 0.00 | 0.03 | 0.03 | 55 | 1017.9 |
| 20260504214746 | 55 | 0 | 0.0 | 0.0 | 0.00 | 0.03 | 0.03 | 55 | 1017.9 |
| 20260504214247 | 55 | 0 | 0.0 | 0.0 | 0.00 | 0.03 | 0.03 | 55 | 1018.0 |
| 20260504213746 | 55 | 0 | 0.0 | 0.0 | 0.00 | 0.03 | 0.03 | 54 | 1018.0 |
| 20260504213246 | 55 | 0 | 0.0 | 0.0 | 0.00 | 0.03 | 0.03 | 54 | 1018.1 |
| 20260504213232 | 55 | 0 | 0.0 | 0.0 | 0.00 | 0.03 | 0.03 | 54 | 1018.0 |
| 20260504212246 | 55 | 0 | 0.0 | 0.0 | 0.00 | 0.03 | 0.03 | 54 | 1018.2 |
| 20260504212234 | 55 | 0 | 0.0 | 3.0 | 0.00 | 0.03 | 0.03 | 53 | 1018.3 |
| 20260504211246 | 55 | 0 | 0.0 | 4.0 | 0.00 | 0.03 | 0.03 | 53 | 1018.3 |
| 20260504210745 | 55 | 0 | 2.0 | 6.0 | 0.00 | 0.03 | 0.03 | 53 | 1018.2 |
| 20260504210506 | 55 | 0 | 4.0 | 6.0 | 0.00 | 0.03 | 0.03 | 53 | 1018.2 |
| 20260504210016 | 55 | 0 | 2.0 | 4.0 | 0.00 | 0.03 | 0.03 | 53 | 1018.2 |
| 20260504205245 | 55 | 0 | 2.0 | 6.0 | 0.00 | 0.03 | 0.03 | 53 | 1018.2 |
| 20260504204745 | 55 | 0 | 1.0 | 6.0 | 0.00 | 0.03 | 0.03 | 53 | 1018.2 |
| 20260504204729 | 55 | 0 | 3.0 | 5.0 | 0.00 | 0.03 | 0.03 | 53 | 1018.3 |
| 20260504203745 | 55 | 0 | 2.0 | 7.0 | 0.00 | 0.03 | 0.03 | 53 | 1018.3 |
| 20260504203245 | 55 | 0 | 4.0 | 7.0 | 0.00 | 0.03 | 0.03 | 53 | 1018.3 |
| 20260504202744 | 55 | 0 | 4.0 | 5.0 | 0.00 | 0.03 | 0.03 | 53 | 1018.3 |
| 20260504202504 | 55 | 0 | 1.0 | 5.0 | 0.00 | 0.03 | 0.03 | 53 | 1018.4 |
| 20260504201745 | 55 | 0 | 1.0 | 6.0 | 0.00 | 0.03 | 0.03 | 53 | 1018.4 |
| 20260504201245 | 56 | 0 | 2.0 | 6.0 | 0.00 | 0.03 | 0.03 | 52 | 1018.4 |
| 20260504200744 | 56 | 0 | 4.0 | 7.0 | 0.00 | 0.03 | 0.03 | 52 | 1018.4 |
| 20260504200244 | 56 | 0 | 4.0 | 7.0 | 0.00 | 0.03 | 0.03 | 52 | 1018.4 |
| 20260504195744 | 56 | 0 | 3.0 | 7.0 | 0.00 | 0.03 | 0.03 | 52 | 1018.3 |
| 20260504195244 | 56 | 0 | 2.0 | 7.0 | 0.00 | 0.03 | 0.03 | 53 | 1018.3 |
| 20260504194743 | 56 | 0 | 4.0 | 9.0 | 0.00 | 0.03 | 0.03 | 52 | 1018.2 |
| 20260504194244 | 56 | 0 | 5.0 | 11.0 | 0.00 | 0.03 | 0.03 | 53 | 1018.2 |
| 20260504193743 | 56 | 0 | 5.0 | 11.0 | 0.00 | 0.03 | 0.03 | 53 | 1018.2 |
| 20260504193244 | 56 | 0 | 6.0 | 10.0 | 0.00 | 0.03 | 0.03 | 53 | 1018.2 |
| 20260504192743 | 56 | 0 | 4.0 | 7.0 | 0.00 | 0.03 | 0.03 | 53 | 1018.1 |
| 20260504192244 | 56 | 0 | 3.0 | 12.0 | 0.00 | 0.03 | 0.03 | 53 | 1018.2 |
| 20260504191743 | 56 | 0 | 8.0 | 12.0 | 0.00 | 0.03 | 0.03 | 54 | 1018.2 |
| 20260504191506 | 56 | 0 | 4.0 | 11.0 | 0.00 | 0.03 | 0.03 | 54 | 1018.1 |
| 20260504190743 | 55 | 0 | 7.0 | 12.0 | 0.00 | 0.03 | 0.03 | 54 | 1018.0 |
| 20260504190242 | 56 | 0 | 6.0 | 12.0 | 0.01 | 0.03 | 0.03 | 55 | 1018.0 |
| 20260504190006 | 56 | 0 | 4.0 | 10.0 | 0.01 | 0.02 | 0.03 | 55 | 1018.0 |
| 20260504185505 | 56 | 0 | 5.0 | 10.0 | 0.01 | 0.02 | 0.03 | 56 | 1018.0 |
| 20260504184742 | 56 | 0 | 2.0 | 6.0 | 0.01 | 0.02 | 0.03 | 56 | 1018.0 |
| 20260504184732 | 56 | 0 | 4.0 | 7.0 | 0.01 | 0.02 | 0.03 | 56 | 1018.1 |
| 20260504183742 | 56 | 0 | 5.0 | 12.0 | 0.02 | 0.02 | 0.03 | 56 | 1018.0 |
| 20260504183242 | 56 | 0 | 6.0 | 12.0 | 0.02 | 0.02 | 0.03 | 56 | 1018.1 |
| 20260504182742 | 56 | 0 | 4.0 | 10.0 | 0.02 | 0.02 | 0.03 | 56 | 1018.0 |
| 20260504182509 | 56 | 0 | 4.0 | 7.0 | 0.02 | 0.02 | 0.03 | 56 | 1018.0 |
| 20260504181742 | 56 | 0 | 5.0 | 7.0 | 0.02 | 0.02 | 0.03 | 56 | 1018.1 |
| 20260504181241 | 57 | 0 | 4.0 | 9.0 | 0.03 | 0.02 | 0.03 | 56 | 1018.1 |
| 20260504180741 | 57 | 0 | 5.0 | 9.0 | 0.03 | 0.02 | 0.02 | 56 | 1018.1 |
| 20260504180242 | 57 | 0 | 4.0 | 7.0 | 0.02 | 0.02 | 0.02 | 56 | 1018.1 |
| 20260504175741 | 57 | 0 | 1.0 | 5.0 | 0.02 | 0.00 | 0.02 | 56 | 1018.3 |
| 20260504175241 | 57 | 0 | 3.0 | 7.0 | 0.02 | 0.00 | 0.02 | 56 | 1018.2 |
| 20260504174741 | 58 | 0 | 3.0 | 9.0 | 0.02 | 0.00 | 0.02 | 56 | 1018.2 |
| 20260504174242 | 58 | 0 | 5.0 | 9.0 | 0.02 | 0.00 | 0.02 | 56 | 1018.1 |
| 20260504174004 | 58 | 0 | 4.0 | 9.0 | 0.02 | 0.00 | 0.02 | 56 | 1018.1 |
| 20260504173503 | 59 | 0 | 4.0 | 7.0 | 0.02 | 0.00 | 0.02 | 55 | 1018.2 |
| 20260504172743 | 59 | 0 | 4.0 | 7.0 | 0.02 | 0.00 | 0.02 | 55 | 1018.1 |
| 20260504172242 | 60 | 0 | 3.0 | 10.0 | 0.01 | 0.00 | 0.01 | 55 | 1018.1 |
| 20260504172234 | 60 | 0 | 6.0 | 10.0 | 0.01 | 0.00 | 0.01 | 53 | 1017.9 |
| 20260504171242 | 61 | 0 | 6.0 | 10.0 | 0.00 | 0.00 | 0.00 | 53 | 1017.9 |
| 20260504170742 | 62 | 0 | 5.0 | 7.0 | 0.00 | 0.00 | 0.00 | 51 | 1017.9 |
| 20260504170242 | 62 | 0 | 3.0 | 4.0 | 0.00 | 0.00 | 0.00 | 50 | 1017.9 |
| 20260504160239 | 64 | 0 | 1.0 | 6.0 | 0.00 | 0.00 | 0.00 | 46 | 1017.5 |
| 20260504150738 | 66 | 0 | 3.0 | 5.0 | 0.00 | 0.00 | 0.00 | 41 | 1017.6 |
| 20260504150504 | 66 | 0 | 1.0 | 5.0 | 0.00 | 0.00 | 0.00 | 41 | 1017.7 |
| 20260504141236 | 66 | 0 | 5.0 | 7.0 | 0.00 | 0.00 | 0.00 | 43 | 1018.0 |
| 20260504140736 | 67 | 0 | 3.0 | 6.0 | 0.00 | 0.00 | 0.00 | 43 | 1018.1 |
| 20260504140236 | 66 | 0 | 1.0 | 6.0 | 0.00 | 0.00 | 0.00 | 43 | 1018.1 |
| 20260504130430 | 63 | 0 | 1.0 | 5.0 | 0.00 | 0.00 | 0.00 | 50 | 1018.7 |
| 20260504110704 | 61 | 0 | 2.0 | 5.0 | 0.00 | 0.00 | 0.00 | 48 | 1019.4 |
| 20260504110204 | 61 | 0 | 4.0 | 5.0 | 0.00 | 0.00 | 0.00 | 47 | 1019.4 |
| 20260504100204 | 61 | 0 | 4.0 | 6.0 | 0.00 | 0.00 | 0.00 | 44 | 1019.4 |
| 20260504081705 | 60 | 0 | 3.0 | 5.0 | 0.00 | 0.00 | 0.00 | 43 | 1019.4 |
| 20260504081205 | 60 | 0 | 4.0 | 6.0 | 0.00 | 0.00 | 0.00 | 42 | 1019.1 |
| 20260504080705 | 60 | 0 | 4.0 | 7.0 | 0.00 | 0.00 | 0.00 | 42 | 1019.0 |
| 20260504080204 | 60 | 0 | 3.0 | 7.0 | 0.00 | 0.00 | 0.00 | 42 | 1018.9 |
| 20260504070204 | 59 | 0 | 4.0 | 5.0 | 0.00 | 0.00 | 0.00 | 51 | 1018.5 |
| 20260504060205 | 56 | 0 | 0.0 | 0.0 | 0.00 | 0.00 | 0.00 | 54 | 1018.3 |
| 20260504050431 | 59 | 0 | 1.0 | 4.0 | 0.00 | 0.00 | 0.00 | 46 | 1017.6 |
| 20260504045705 | 59 | 0 | 3.0 | 4.0 | 0.00 | 0.00 | 0.00 | 45 | 1017.6 |
| 20260504045204 | 59 | 0 | 3.0 | 5.0 | 0.00 | 0.00 | 0.00 | 45 | 1017.5 |
| 20260504044705 | 59 | 0 | 3.0 | 6.0 | 0.00 | 0.00 | 0.00 | 45 | 1017.5 |